| time (UTC) | temp F | wind direction | speed MPH | gust MPH | rain 1hr in | rain 24hr in | rain mn in | humidity % | barometer mb |
| 20260831220724 | 61 | 0.0 | 0.0 | 0.00 | 0.00 | 0.00 | 86 | 1008.2 | |
| 20260831215224 | 60 | 0.0 | 0.0 | 0.00 | 0.00 | 0.00 | 87 | 1008.0 | |
| 20260831213724 | 60 | 0.0 | 0.0 | 0.00 | 0.00 | 0.00 | 87 | 1007.8 | |
| 20260831212224 | 60 | 0.0 | 0.0 | 0.00 | 0.00 | 0.00 | 87 | 1007.6 | |
| 20260831210724 | 60 | 0.0 | 0.0 | 0.00 | 0.00 | 0.00 | 86 | 1008.1 | |
| 20260831205224 | 61 | 0.0 | 0.0 | 0.00 | 0.00 | 0.00 | 85 | 1007.9 | |
| 20260831203724 | 61 | 0.0 | 0.0 | 0.00 | 0.00 | 0.00 | 84 | 1007.5 | |
| 20260831202224 | 61 | 0.0 | 0.0 | 0.00 | 0.00 | 0.00 | 83 | 1007.5 | |
| 20260831200724 | 62 | 0.0 | 0.0 | 0.00 | 0.00 | 0.00 | 80 | 1006.6 | |
| 20260831195224 | 63 | 0.0 | 0.0 | 0.00 | 0.00 | 0.00 | 76 | 1006.4 | |
| 20260831193724 | 64 | 0.0 | 0.0 | 0.00 | 0.00 | 0.00 | 76 | 1007.1 | |
| 20260831192224 | 64 | 0.0 | 0.0 | 0.00 | 0.00 | 0.00 | 76 | 1006.8 | |
| 20260831190724 | 64 | 0.0 | 0.0 | 0.00 | 0.00 | 0.00 | 75 | 1006.6 | |
| 20260831185224 | 65 | 0.0 | 0.0 | 0.00 | 0.00 | 0.00 | 73 | 1006.5 | |
| 20260831183724 | 65 | 0.0 | 0.0 | 0.00 | 0.00 | 0.00 | 71 | 1005.6 | |
| 20260831182224 | 67 | 0.0 | 0.0 | 0.00 | 0.00 | 0.00 | 67 | 1006.0 | |
| 20260831180724 | 69 | 0.0 | 0.0 | 0.00 | 0.00 | 0.00 | 61 | 1006.5 | |
| 20260831175224 | 70 | 0.0 | 0.0 | 0.00 | 0.00 | 0.00 | 62 | 1005.7 | |
| 20260831173724 | 71 | 0.0 | 0.0 | 0.00 | 0.00 | 0.00 | 62 | 1005.7 | |
| 20260831172224 | 72 | 0.0 | 0.0 | 0.00 | 0.00 | 0.00 | 57 | 1005.3 | |
| 20260831170724 | 75 | 0.0 | 0.0 | 0.00 | 0.00 | 0.00 | 49 | 1004.9 | |
| 20260831165224 | 75 | 0.0 | 0.0 | 0.00 | 0.00 | 0.00 | 50 | 1004.7 | |
| 20260831163724 | 76 | 0.0 | 0.0 | 0.00 | 0.00 | 0.00 | 49 | 1004.2 | |
| 20260831162224 | 76 | 0.0 | 0.0 | 0.00 | 0.00 | 0.00 | 50 | 1004.0 | |
| 20260831160724 | 76 | 0.0 | 0.0 | 0.00 | 0.00 | 0.00 | 50 | 1005.6 | |
| 20260831155224 | 76 | 0.0 | 0.0 | 0.00 | 0.00 | 0.00 | 51 | 1004.5 | |
| 20260831153724 | 77 | 0.0 | 0.0 | 0.00 | 0.00 | 0.00 | 52 | 1002.8 | |
| 20260831152224 | 77 | 0.0 | 0.0 | 0.00 | 0.00 | 0.00 | 53 | 1005.4 | |
| 20260831150724 | 77 | 0.0 | 0.0 | 0.00 | 0.00 | 0.00 | 53 | 1004.0 | |
| 20260831145224 | 77 | 0.0 | 0.0 | 0.00 | 0.00 | 0.00 | 52 | 1005.3 | |
| 20260831143724 | 77 | 0.0 | 0.0 | 0.00 | 0.00 | 0.00 | 56 | 1005.4 | |
| 20260831142224 | 77 | 0.0 | 0.0 | 0.00 | 0.00 | 0.00 | 56 | 1003.7 | |
| 20260831140724 | 76 | 0.0 | 0.0 | 0.00 | 0.00 | 0.00 | 57 | 1005.1 | |
| 20260831135224 | 77 | 0.0 | 0.0 | 0.00 | 0.00 | 0.00 | 56 | 1005.2 | |
| 20260831133724 | 77 | 0.0 | 0.0 | 0.00 | 0.00 | 0.00 | 58 | 1005.4 | |
| 20260831132224 | 76 | 0.0 | 0.0 | 0.00 | 0.00 | 0.00 | 58 | 1006.1 | |
| 20260831130724 | 76 | 0.0 | 0.0 | 0.00 | 0.00 | 0.00 | 61 | 1006.4 | |
| 20260831125224 | 76 | 0.0 | 0.0 | 0.00 | 0.00 | 0.00 | 58 | 1006.6 | |
| 20260831123724 | 76 | 0.0 | 0.0 | 0.00 | 0.00 | 0.00 | 60 | 1006.6 | |
| 20260831122224 | 76 | 0.0 | 0.0 | 0.00 | 0.00 | 0.00 | 60 | 1005.9 | |
| 20260831120724 | 76 | 0.0 | 0.0 | 0.00 | 0.00 | 0.00 | 62 | 1005.9 | |
| 20260831115224 | 74 | 0.0 | 0.0 | 0.00 | 0.00 | 0.00 | 63 | 1005.1 | |
| 20260831113724 | 75 | 0.0 | 0.0 | 0.00 | 0.00 | 0.00 | 65 | 1006.6 | |
| 20260831112224 | 74 | 0.0 | 0.0 | 0.00 | 0.00 | 0.00 | 67 | 1005.0 | |
| 20260831110724 | 73 | 0.0 | 0.0 | 0.00 | 0.00 | 0.00 | 67 | 1005.9 | |
| 20260831105224 | 73 | 0.0 | 0.0 | 0.00 | 0.00 | 0.00 | 69 | 1006.5 | |
| 20260831103725 | 72 | 0.0 | 0.0 | 0.00 | 0.00 | 0.00 | 71 | 1006.4 | |
| 20260831102224 | 71 | 0.0 | 0.0 | 0.00 | 0.00 | 0.00 | 74 | 1006.0 | |
| 20260831100724 | 71 | 0.0 | 0.0 | 0.00 | 0.00 | 0.00 | 77 | 1006.5 | |
| 20260831095224 | 69 | 0.0 | 0.0 | 0.00 | 0.00 | 0.00 | 79 | 1006.6 | |
| 20260831093724 | 68 | 0.0 | 0.0 | 0.00 | 0.00 | 0.00 | 83 | 1006.7 | |
| 20260831092224 | 66 | 0.0 | 0.0 | 0.00 | 0.00 | 0.00 | 85 | 1006.5 | |
| 20260831090724 | 63 | 0.0 | 0.0 | 0.00 | 0.00 | 0.00 | 88 | 1007.1 | |
| 20260831085224 | 62 | 0.0 | 0.0 | 0.00 | 0.00 | 0.00 | 88 | 1006.4 | |
| 20260831083724 | 61 | 0.0 | 0.0 | 0.00 | 0.00 | 0.00 | 88 | 1007.0 | |
| 20260831082224 | 61 | 0.0 | 0.0 | 0.00 | 0.00 | 0.00 | 87 | 1007.0 | |
| 20260831080724 | 61 | 0.0 | 0.0 | 0.00 | 0.00 | 0.00 | 86 | 1006.8 | |
| 20260831075224 | 61 | 0.0 | 0.0 | 0.00 | 0.00 | 0.00 | 85 | 1007.0 | |
| 20260831073724 | 61 | 0.0 | 0.0 | 0.00 | 0.00 | 0.00 | 84 | 1006.6 | |
| 20260831072224 | 62 | 0.0 | 0.0 | 0.00 | 0.00 | 0.00 | 82 | 1006.8 | |
| 20260831070724 | 63 | 0.0 | 0.0 | 0.00 | 0.00 | 0.00 | 80 | 1005.1 | |
| 20260831065224 | 63 | 0.0 | 0.0 | 0.00 | 0.00 | 0.00 | 80 | 1005.5 | |
| 20260831063724 | 63 | 0.0 | 0.0 | 0.00 | 0.00 | 0.00 | 81 | 1005.8 | |
| 20260831062224 | 62 | 0.0 | 0.0 | 0.00 | 0.00 | 0.00 | 83 | 1006.0 | |
| 20260831060724 | 61 | 0.0 | 0.0 | 0.00 | 0.00 | 0.00 | 84 | 1006.0 | |
| 20260831055224 | 61 | 0.0 | 0.0 | 0.00 | 0.00 | 0.00 | 85 | 1006.1 | |
| 20260831053724 | 61 | 0.0 | 0.0 | 0.00 | 0.00 | 0.00 | 85 | 1006.1 | |
| 20260831052224 | 60 | 0.0 | 0.0 | 0.00 | 0.00 | 0.00 | 85 | 1006.2 | |
| 20260831050724 | 60 | 0.0 | 0.0 | 0.00 | 0.00 | 0.00 | 85 | 1005.8 | |
| 20260831045224 | 59 | 0.0 | 0.0 | 0.00 | 0.00 | 0.00 | 85 | 1006.6 | |
| 20260831043724 | 59 | 0.0 | 0.0 | 0.00 | 0.00 | 0.00 | 86 | 1006.5 | |
| 20260831042224 | 59 | 0.0 | 0.0 | 0.00 | 0.00 | 0.00 | 85 | 1005.8 | |
| 20260831040724 | 60 | 0.0 | 0.0 | 0.00 | 0.00 | 0.00 | 85 | 1006.3 | |
| 20260831035224 | 59 | 0.0 | 0.0 | 0.00 | 0.00 | 0.00 | 84 | 1006.3 | |
| 20260831033724 | 58 | 0.0 | 0.0 | 0.00 | 0.00 | 0.00 | 86 | 1006.9 | |
| 20260831032224 | 58 | 0.0 | 0.0 | 0.00 | 0.00 | 0.00 | 85 | 1006.8 | |
| 20260831030724 | 59 | 0.0 | 0.0 | 0.00 | 0.00 | 0.00 | 84 | 1006.7 | |
| 20260831025224 | 59 | 0.0 | 0.0 | 0.00 | 0.00 | 0.00 | 84 | 1006.4 | |
| 20260831023724 | 60 | 0.0 | 0.0 | 0.00 | 0.00 | 0.00 | 82 | 1006.9 | |
| 20260831022224 | 61 | 0.0 | 0.0 | 0.00 | 0.00 | 0.00 | 81 | 1006.8 | |
| 20260831020724 | 60 | 0.0 | 0.0 | 0.00 | 0.00 | 0.00 | 82 | 1006.6 | |
| 20260831015224 | 61 | 0.0 | 0.0 | 0.00 | 0.00 | 0.00 | 81 | 1007.1 | |
| 20260831013724 | 61 | 0.0 | 0.0 | 0.00 | 0.00 | 0.00 | 80 | 1006.8 | |
| 20260831012224 | 62 | 0.0 | 0.0 | 0.00 | 0.00 | 0.00 | 80 | 1006.9 | |
| 20260831010724 | 62 | 0.0 | 0.0 | 0.00 | 0.00 | 0.00 | 80 | 1007.1 | |
| 20260831005224 | 61 | 0.0 | 0.0 | 0.00 | 0.00 | 0.00 | 82 | 1007.3 | |
| 20260831003724 | 62 | 0.0 | 0.0 | 0.00 | 0.00 | 0.00 | 80 | 1007.5 | |
| 20260831002224 | 62 | 0.0 | 0.0 | 0.00 | 0.00 | 0.00 | 80 | 1007.6 | |
| 20260831000724 | 62 | 0.0 | 0.0 | 0.00 | 0.00 | 0.00 | 79 | 1007.6 | |
| 20260830235224 | 63 | 0.0 | 0.0 | 0.00 | 0.00 | 0.00 | 78 | 1007.5 | |
| 20260830233724 | 64 | 0.0 | 0.0 | 0.00 | 0.00 | 0.00 | 76 | 1007.4 | |
| 20260830232224 | 65 | 0.0 | 0.0 | 0.00 | 0.00 | 0.00 | 73 | 1007.5 | |
| 20260830230724 | 65 | 0.0 | 0.0 | 0.00 | 0.00 | 0.00 | 74 | 1007.4 | |
| 20260830225224 | 65 | 0.0 | 0.0 | 0.00 | 0.00 | 0.00 | 73 | 1007.6 | |
| 20260830223724 | 66 | 0.0 | 0.0 | 0.00 | 0.00 | 0.00 | 72 | 1007.3 | |
| 20260830222224 | 65 | 0.0 | 0.0 | 0.00 | 0.00 | 0.00 | 73 | 1007.4 |